Regional Weather Roundup
Issued by NWS

Home | Current Version | Previous Version | Text Only | Print | Product List | Glossary Off
Versions: 1 2 3 4 5 6 7 8 9 10 11 12 13 14 15 16 17 18 19 20 21 22 23 24 25 26 27 28 29 30 31 32 33 34 35 36 37 38 39 40 41 42 43 44 45 46 47 48 49 50

000
ASUS45 KABQ 250910
RWRNM
NEW MEXICO REGIONAL WEATHER ROUNDUP
NATIONAL WEATHER SERVICE ALBUQUERQUE NM
300 AM MDT MON SEP 25 2017

NOTE: "FAIR" MEANS FEW OR NO CLOUDS BELOW 12,000 FEET AGL WITH NO
       SIGNIFICANT WEATHER OR OBSTRUCTIONS TO VISION.

      THIS PRODUCT IS RELEASED AS TWO VERSIONS.  ONE VERSION NEAR
      THE TOP OF THE HOUR CONTAINING PRELIMINARY DATA FROM ALBUQUERQUE
      AND OTHER STATIONS.  A FINAL VERSION WITH ADDITIONAL DATA IS
      ISSUED ABOUT 10 MINUTES AFTER THE HOUR.

NMZ501-503-504-510>518-251000-
NORTHWEST PLATEAU/NORTHCENTRAL MOUNTAINS

CITY           SKY/WX    TMP DP  RH WIND       PRES   REMARKS
FARMINGTON     FAIR      35  18  49 NE3       30.02F
LOS ALAMOS     FAIR      49  24  37 CALM      30.04R
SANTA FE       FAIR      46  29  51 N10       29.99R
TAOS           MOCLDY    45  31  58 S3        30.06S
ANGEL FIRE     FAIR      29  27  92 CALM      30.11S

$$
NMZ402-403-502-505>509-251000-
WESTCENTRAL MOUNTAINS/SOUTHWEST MOUNTAINS

CITY           SKY/WX    TMP DP  RH WIND       PRES   REMARKS
GALLUP         FAIR      32   8  36 CALM      30.06S
GRANTS         FAIR      40  13  32 N8        30.06S WCI  35
SILVER CITY    FAIR      49  32  52 N9        29.94S

$$
NMZ407-409-411-412-251000-
SOUTHERN DESERTS

CITY           SKY/WX    TMP DP  RH WIND       PRES   REMARKS
DEMING         FAIR      54  33  45 W8        29.88F
LAS CRUCES     FAIR      59  39  47 N7        29.88S
HOLLOMAN AFB   MOCLDY    65  49  55 W5        29.86S
ALAMOGORDO     FAIR      61  39  44 NE8       29.86F
T OR C         FAIR      63  24  22 NW8       29.89F

$$
NMZ519>523-251000-
CENTRAL VALLEYS/CENTRAL HIGHLANDS

CITY           SKY/WX    TMP DP  RH WIND       PRES   REMARKS
ALBUQUERQUE    FAIR      57  22  25 N3        29.97S
DOUBLE EAGLE   CLOUDY    52  22  31 NE6       29.99R
MORIARTY ARPT  FAIR      42  32  69 NW6       30.00R
CLINES CORNERS FAIR      47  25  42 SW9       30.03R
BELEN          CLOUDY    55  19  24 N9        29.97S
SOCORRO        FAIR      58  21  23 N9        29.94S

$$
NMZ524>526-539-540-251000-
SOUTHCENTRAL MOUNTAINS

CITY           SKY/WX    TMP DP  RH WIND       PRES   REMARKS
RUIDOSO        FAIR      55  36  47 MISG      30.03F

$$
NMZ527>531-251000-
NORTHEAST HIGHLANDS/NORTHEAST PLAINS

CITY           SKY/WX    TMP DP  RH WIND       PRES   REMARKS
LAS VEGAS      FAIR      43  36  76 SE3       30.01S
RATON          NOT AVBL
CLAYTON        TSTM      56  54  93 SW6G24    29.94F FOG

$$
NMZ532>537-251000-
EASTCENTRAL PLAINS

CITY           SKY/WX    TMP DP  RH WIND       PRES   REMARKS
SANTA ROSA     FAIR      62  59  90 S12       29.91S
TUCUMCARI      LGT RAIN  63  61  93 S6        29.91S
CANNON AFB     NOT AVBL
CLOVIS AIRPORT CLOUDY    66  63  90 S14       29.93F

$$
NMZ028-029-538-251000-
SOUTHEAST PLAINS

CITY           SKY/WX    TMP DP  RH WIND       PRES   REMARKS
ROSWELL        CLOUDY    69  66  90 S9        29.86F
ARTESIA        CLOUDY    68  68 100 SE5       29.85F
CARLSBAD       CLOUDY    69  69 100 SE12      29.82F
HOBBS          CLOUDY    68  66  94 SE16      29.88F


$$




USA.gov is the U.S. government's official web portal to all federal, state and local government web resources and services.